CW5404 Weather Reports


time (UTC)temp
F
wind
direction
speed
knots
gust
knots
rain 1hr
in
rain 24hr
in
rain mn
in
humidity
%
barometer
mb
20260831050942 63 92 0.0 0.0 0.00 0.00 0.00 67 1014.7
20260831050511 63 92 0.0 0.9 0.00 0.00 0.00 66 1014.7
20260831045511 64 44 0.0 1.7 0.00 0.00 0.00 66 1014.7
20260831045011 64 327 0.0 1.7 0.00 0.00 0.00 66 1014.7
20260831044441 64 117 0.0 0.0 0.00 0.00 0.00 66 1014.7
20260831043442 64 136 0.0 0.0 0.00 0.00 0.00 65 1014.8
20260831043011 64 136 0.0 1.7 0.00 0.00 0.00 65 1014.8
20260831042511 65 136 0.0 1.7 0.00 0.00 0.00 65 1014.7
20260831041941 65 136 1.7 1.7 0.00 0.00 0.00 64 1014.7
20260831041511 65 235 0.0 0.9 0.00 0.00 0.00 63 1014.7
20260831041012 65 235 0.0 0.9 0.00 0.00 0.00 63 1014.7
20260831040441 66 219 0.0 0.0 0.00 0.00 0.00 62 1014.7
20260831035942 66 219 0.0 0.9 0.00 0.00 0.00 62 1014.7
20260831035441 66 219 0.0 0.9 0.00 0.00 0.00 61 1014.5
20260831034942 66 218 0.9 0.9 0.00 0.00 0.00 61 1014.5
20260831034442 67 30 0.0 0.0 0.00 0.00 0.00 60 1014.6
20260831034011 67 30 0.0 0.0 0.00 0.00 0.00 59 1014.5
20260831033011 68 30 0.0 0.0 0.00 0.00 0.00 58 1014.5
20260831032441 68 31 0.0 1.7 0.00 0.00 0.00 57 1014.5
20260831031941 69 24 0.0 2.6 0.00 0.00 0.00 56 1014.5
20260831031511 69 21 0.0 2.6 0.00 0.00 0.00 55 1014.5
20260831030011 70 35 0.9 5.2 0.00 0.00 0.00 53 1014.4
20260831025510 70 55 0.9 4.3 0.00 0.00 0.00 52 1014.3
20260831024940 71 104 1.7 4.3 0.00 0.00 0.00 52 1014.3
20260831024441 71 32 4.3 4.3 0.00 0.00 0.00 51 1014.3
20260831024010 72 25 3.5 3.5 0.00 0.00 0.00 51 1014.2
20260831023510 72 30 1.7 2.6 0.00 0.00 0.00 50 1014.2
20260831022941 72 60 0.0 4.3 0.00 0.00 0.00 49 1014.2
20260831022510 72 44 2.6 6.1 0.00 0.00 0.00 49 1014.3
20260831022010 72 61 0.9 6.1 0.00 0.00 0.00 49 1014.3
20260831021510 73 46 3.5 5.2 0.00 0.00 0.00 48 1014.3
20260831021011 73 24 0.9 4.3 0.00 0.00 0.00 48 1014.5
20260831020510 73 46 0.9 5.2 0.00 0.00 0.00 47 1014.5
20260831015440 73 95 1.7 5.2 0.00 0.00 0.00 47 1014.5
20260831015010 73 38 0.9 5.2 0.00 0.00 0.00 47 1014.5
20260831014440 73 350 2.6 5.2 0.00 0.00 0.00 46 1014.5
20260831014010 73 71 0.0 6.1 0.00 0.00 0.00 46 1014.6
20260831013510 74 35 1.7 7.0 0.00 0.00 0.00 45 1014.6
20260831013010 74 58 2.6 7.0 0.00 0.00 0.00 45 1014.6
20260831012440 74 32 4.3 6.1 0.00 0.00 0.00 45 1014.6
20260831011940 74 61 2.6 6.1 0.00 0.00 0.00 45 1014.6
20260831005940 74 33 2.6 5.2 0.00 0.00 0.00 43 1014.7
20260831005510 75 62 0.9 5.2 0.00 0.00 0.00 43 1015.0
20260831005010 75 42 3.5 5.2 0.00 0.00 0.00 42 1015.0
20260831004440 75 275 0.0 2.6 0.00 0.00 0.00 43 1015.0
20260831004010 75 17 0.9 5.2 0.00 0.00 0.00 44 1015.1
20260831003440 75 53 0.9 5.2 0.00 0.00 0.00 42 1015.1
20260831003009 75 49 2.6 6.1 0.00 0.00 0.00 42 1015.1
20260831002440 75 120 1.7 6.1 0.00 0.00 0.00 42 1015.2
20260831001939 75 122 0.9 5.2 0.00 0.00 0.00 42 1015.2
20260831001510 75 26 3.5 5.2 0.00 0.00 0.00 41 1015.2
20260831001009 76 61 0.9 5.2 0.00 0.00 0.00 41 1015.5
20260831000509 76 321 0.9 4.3 0.00 0.00 0.00 41 1015.5
20260830235509 76 28 0.0 4.3 0.00 0.00 0.00 40 1015.6
20260830235010 77 174 0.9 5.2 0.00 0.00 0.00 40 1015.6
20260830234509 77 227 0.9 5.2 0.00 0.00 0.00 39 1015.6
20260830234010 77 31 1.7 6.1 0.00 0.00 0.00 40 1015.8
20260830232509 76 73 0.9 5.2 0.00 0.00 0.00 41 1016.1
20260830231940 76 82 2.6 4.3 0.00 0.00 0.00 40 1016.1
20260830231509 76 338 1.7 6.1 0.00 0.00 0.00 40 1016.1
20260830231009 76 39 3.5 6.1 0.00 0.00 0.00 40 1016.2
20260830230009 75 165 1.7 7.0 0.00 0.00 0.00 41 1016.2
20260830224939 76 80 1.7 7.0 0.00 0.00 0.00 39 1016.4
20260830224509 75 26 2.6 7.0 0.00 0.00 0.00 40 1016.4
20260830223939 76 63 6.1 7.0 0.00 0.00 0.00 39 1016.7
20260830223509 76 31 0.0 5.2 0.00 0.00 0.00 39 1016.7
20260830222439 75 120 3.5 6.1 0.00 0.00 0.00 39 1017.0
20260830222009 75 333 3.5 6.1 0.00 0.00 0.00 40 1017.0
20260830220939 76 122 2.6 6.1 0.00 0.00 0.00 38 1017.2
20260830220509 76 355 3.5 7.0 0.00 0.00 0.00 39 1017.2
20260830215439 75 355 2.6 7.0 0.00 0.00 0.00 41 1017.5
20260830215009 75 38 0.9 5.2 0.00 0.00 0.00 39 1017.5
20260830213009 74 28 4.3 7.0 0.00 0.00 0.00 41 1017.7
20260830211943 74 26 0.0 7.8 0.00 0.00 0.00 41 1017.9
20260830211442 74 333 0.9 7.0 0.00 0.00 0.00 41 1017.9
20260830211012 73 43 2.6 7.0 0.00 0.00 0.00 42 1018.1
20260830210513 73 13 3.5 6.1 0.00 0.00 0.00 41 1018.1
20260830205942 73 217 1.7 6.1 0.00 0.00 0.00 42 1018.1
20260830205512 72 191 0.9 7.0 0.00 0.00 0.00 44 1018.2
20260830204942 72 84 4.3 7.0 0.00 0.00 0.00 44 1018.2
20260830204512 72 5 3.5 6.1 0.00 0.00 0.00 43 1018.2
20260830204012 72 355 1.7 6.1 0.00 0.00 0.00 43 1018.3
20260830202942 72 209 0.9 5.2 0.00 0.00 0.00 43 1018.3
20260830202442 73 153 1.7 5.2 0.00 0.00 0.00 41 1018.7
20260830201442 72 50 0.9 6.1 0.00 0.00 0.00 44 1018.7
20260830200512 71 10 3.5 7.8 0.00 0.00 0.00 45 1018.8
20260830200012 71 75 2.6 7.0 0.00 0.00 0.00 45 1018.8
20260830195512 71 76 3.5 6.1 0.00 0.00 0.00 44 1018.9
20260830194942 71 42 1.7 5.2 0.00 0.00 0.00 45 1018.9
20260830194442 71 253 0.9 6.1 0.00 0.00 0.00 45 1018.9
20260830194012 70 140 0.9 6.1 0.00 0.00 0.00 45 1019.2
20260830192942 71 88 0.9 6.1 0.00 0.00 0.00 46 1019.2
20260830192442 70 340 1.7 7.0 0.00 0.00 0.00 47 1019.4
20260830192012 70 64 2.6 7.0 0.00 0.00 0.00 47 1019.4
20260830191442 69 76 0.9 4.3 0.00 0.00 0.00 49 1019.4
20260830190942 68 18 2.6 7.0 0.00 0.00 0.00 51 1019.5
20260830190442 68 61 1.7 7.0 0.00 0.00 0.00 50 1019.5
20260830185942 68 53 3.5 5.2 0.00 0.00 0.00 50 1019.5
20260830185442 69 26 2.6 6.1 0.00 0.00 0.00 50 1019.8
20260830184942 69 99 2.6 6.1 0.00 0.00 0.00 51 1019.8
20260830184442 69 40 5.2 5.2 0.00 0.00 0.00 50 1019.8
20260830183942 69 342 0.9 4.3 0.00 0.00 0.00 51 1019.8
20260830183442 68 165 0.9 4.3 0.00 0.00 0.00 52 1019.8
20260830182942 68 84 2.6 5.2 0.00 0.00 0.00 53 1019.8
20260830182442 68 126 2.6 6.1 0.00 0.00 0.00 53 1019.9
20260830180942 67 61 2.6 6.1 0.00 0.00 0.00 52 1020.0
20260830180442 67 86 0.0 6.1 0.00 0.00 0.00 52 1020.0
20260830175942 67 107 0.9 6.1 0.00 0.00 0.00 55 1020.0
20260830175442 66 58 1.7 6.1 0.00 0.00 0.00 55 1020.0
20260830175012 66 76 2.6 5.2 0.00 0.00 0.00 56 1020.0
20260830174442 66 64 2.6 7.8 0.00 0.00 0.00 57 1020.0
20260830173942 66 5 5.2 7.8 0.00 0.00 0.00 58 1020.2
20260830173442 66 84 1.7 7.8 0.00 0.00 0.00 57 1020.2
20260830172442 65 94 6.1 6.1 0.00 0.00 0.00 62 1020.2
20260830171942 65 34 2.6 6.1 0.00 0.00 0.00 62 1020.2
20260830170942 65 73 3.5 7.0 0.00 0.00 0.00 62 1020.2
20260830170442 65 84 2.6 3.5 0.00 0.00 0.00 63 1020.2
20260830165942 65 283 2.6 3.5 0.00 0.00 0.00 63 1020.2
20260830165442 64 34 0.0 3.5 0.00 0.00 0.00 65 1020.3
20260830165012 64 61 0.9 6.1 0.00 0.00 0.00 65 1020.3
20260830164442 64 44 3.5 6.1 0.00 0.00 0.00 63 1020.3
20260830163942 64 76 0.9 3.5 0.00 0.00 0.00 64 1020.4
20260830163442 63 222 0.9 1.7 0.00 0.00 0.00 65 1020.4
20260830162942 63 38 0.0 0.0 0.00 0.00 0.00 67 1020.4
20260830162442 62 81 0.0 0.0 0.00 0.00 0.00 67 1020.4
20260830161442 61 102 0.0 0.0 0.00 0.00 0.00 70 1020.4
20260830161012 60 109 0.0 0.0 0.00 0.00 0.00 71 1020.4
20260830155512 58 147 0.0 0.0 0.00 0.00 0.00 77 1020.4
20260830095450 49 128 0.0 0.0 0.00 0.00 0.00 85 1019.9
20260830094950 49 128 0.0 0.0 0.00 0.00 0.00 85 1019.9
20260830094450 49 128 0.0 0.0 0.00 0.00 0.00 85 1019.9
20260830093950 49 128 0.0 0.0 0.00 0.00 0.00 84 1019.8
20260830092950 50 128 0.0 0.0 0.00 0.00 0.00 83 1019.8
20260830092450 50 128 0.0 0.0 0.00 0.00 0.00 83 1019.8
20260830091950 50 128 0.0 0.0 0.00 0.00 0.00 82 1019.8
20260830091450 50 128 0.0 0.0 0.00 0.00 0.00 82 1019.8
20260830090950 50 128 0.0 0.0 0.00 0.00 0.00 82 1019.8
20260830090450 50 128 0.0 0.0 0.00 0.00 0.00 82 1019.8
20260830085950 51 128 0.0 0.0 0.00 0.00 0.00 81 1019.8
20260830085450 51 128 0.0 0.0 0.00 0.00 0.00 81 1019.8
20260830084950 51 128 0.0 0.0 0.00 0.00 0.00 81 1019.8
20260830084450 51 128 0.0 0.0 0.00 0.00 0.00 80 1019.8
20260830083950 51 128 0.0 0.0 0.00 0.00 0.00 80 1019.8
20260830083451 52 128 0.0 0.0 0.00 0.00 0.00 79 1019.8
20260830082450 52 128 0.0 0.0 0.00 0.00 0.00 79 1019.8
20260830081950 53 128 0.0 0.0 0.00 0.00 0.00 79 1019.8
20260830081450 53 128 0.0 0.0 0.00 0.00 0.00 79 1019.8
20260830080950 53 128 0.0 0.0 0.00 0.00 0.00 78 1019.8
20260830080450 53 128 0.0 0.0 0.00 0.00 0.00 78 1019.8
20260830075450 54 127 0.0 0.0 0.00 0.00 0.00 77 1019.8
20260830074950 54 127 0.0 0.0 0.00 0.00 0.00 76 1019.8
20260830074450 55 127 0.0 0.0 0.00 0.00 0.00 76 1019.8
20260830073950 55 127 0.0 0.0 0.00 0.00 0.00 76 1019.7
20260830073450 55 127 0.0 1.7 0.00 0.00 0.00 75 1019.7
20260830072950 55 127 0.0 1.7 0.00 0.00 0.00 75 1019.7
20260830072450 56 127 1.7 1.7 0.00 0.00 0.00 75 1019.6
20260830071950 56 265 0.0 0.0 0.00 0.00 0.00 75 1019.6
20260830071450 56 265 0.0 0.0 0.00 0.00 0.00 75 1019.6
20260830070950 56 265 0.0 0.0 0.00 0.00 0.00 74 1019.6
20260830065950 57 265 0.0 0.0 0.00 0.00 0.00 74 1019.6
20260830065450 57 265 0.0 0.0 0.00 0.00 0.00 74 1019.5
20260830064450 57 265 0.0 0.0 0.00 0.00 0.00 73 1019.5
20260830063950 57 265 0.0 0.0 0.00 0.00 0.00 73 1019.5
20260830063450 57 265 0.0 0.0 0.00 0.00 0.00 72 1019.5
20260830062950 57 265 0.0 0.0 0.00 0.00 0.00 72 1019.5
20260830062450 57 259 0.0 0.0 0.00 0.00 0.00 72 1019.4
20260830061950 57 259 0.0 1.7 0.00 0.00 0.00 72 1019.4
20260830061450 58 259 0.0 1.7 0.00 0.00 0.00 72 1019.4
20260830060950 58 218 0.0 0.9 0.00 0.00 0.00 71 1019.4
20260830060450 58 218 0.0 0.0 0.00 0.00 0.00 71 1019.4
20260830055950 58 218 0.0 0.0 0.00 0.00 0.00 70 1019.4
20260830055450 58 218 0.0 0.9 0.00 0.00 0.00 70 1019.4
20260830054950 59 217 0.0 1.7 0.00 0.00 0.00 70 1019.4
20260830053450 58 231 0.0 0.9 0.00 0.00 0.00 71 1019.3
20260830052950 59 231 0.0 0.9 0.00 0.00 0.00 71 1019.3
20260830051950 59 232 0.0 4.3 0.00 0.00 0.00 70 1019.4
20260830051450 59 297 0.0 0.0 0.00 0.00 0.00 70 1019.4